www.pogodaiklimat.ru

Погода и климат >> Архив погоды >> Китай >> Внутренняя Монголия >> Байрин-Цзоци


ПОГОДА в Байрин-Цзоци

  • Прогноз погоды в Байрин-Цзоци
  • Монитор погоды в Байрин-Цзоци

АРХИВ ПОГОДЫ в Байрин-Цзоци

Время (UTC), дата Ветер
(напр.,м/с)
 
Видим.   Явления Облачность Т
(С)
Тd
(С)
f
(%)
Тe
(С)
Тes
(С)
Комфортность P
(гПа)
Po
(гПа)
Тmin
(С)
Tmax
(С)
R
(мм)
R24
(мм)
S
(см)
12 16.07 З 13
{19}
18 км слаб. дождь 9/9 1000 м
[]
+22.3 +16.3 69 +27 +27 душно 1004.9 939.1 0.2
15 16.07 СЗ 2 16 км н/о +19.7 +18.9 95 +23 +23 комфорт 1006.3 950.9
18 16.07 З 2
{21}
30 км ?/? +19.9 +17.5 86 +23 +23 комфорт 1005.2 939.8 +31.7 0.5
21 16.07 Ю 1 30 км н/о +19.6 +17.7 89 +23 +23 комфорт 1005.6 950.2
00 17.07 СВ 2 30 км 9/9
[]
+22.5 +18.3 77 +28 +29 душно 1006.6 940.6 0.5
03 17.07 СВ 1 30 км 4/4 1000 м
[]
+27.1 +18.4 59 +32 +44 очень
душно
1006.8 952.7
06 17.07 ЮВ 3 30 км 4/4 1000 м
[]
+29.0 +17.8 51 +33 +41 очень
душно
1005.0 939.6 +19.4 2
09 17.07 В 4 30 км 5/5 1000 м
[]
+28.0 +18.7 57 +33 +34 очень
душно
1004.4 950.6
12 17.07 В 1 30 км 3/3
[]
+25.5 +19.6 70 +31 +31 очень
душно
1005.3 939.8
15 17.07 С 1 30 км ?/? +22.5 +19.1 81 +28 +28 душно 1005.9 951.1
18 17.07 С 2 24 км н/о +20.7 +18.5 87 +25 +25 комфорт 1005.6 940.2 +29.7
21 17.07 С 2 9000 м н/о +19.0 +18.0 94 +21 +21 комфорт 1005.9 950.4
00 18.07 ЮЗ 1 28 км ясно +23.5 +19.0 76 +28 +37 душно 1005.7 940.2
03 18.07 В 2 30 км 4/4 1000 м
[]
+29.9 +18.7 51 +35 +46 очень
душно
1005.4 951.9
06 18.07 Ю 4 30 км 5/5 1000 м
[]
+31.5 +17.8 44 +36 +41 очень
душно
1004.3 939.3 +19.0
09 18.07 ЮВ 4 30 км 3/3 1000 м
[]
+30.2 +15.5 41 +33 +35 душно 1004.0 950.6
12 18.07 З 1 30 км 6/6 1000 м
[]
+27.8 +16.7 51 +31 +31 душно 1003.8 938.7
15 18.07 В 1 30 км н/о +24.6 +16.8 62 +28 +28 душно 1004.0 949.6
18 18.07 В 1 30 км н/о +22.7 +18.0 75 +28 +28 душно 1003.8 939.0 +32.0
21 18.07 В 1 29 км н/о +20.9 +17.9 83 +26 +26 душно 1003.6 948.6
00 19.07 ЮВ 1 27 км 9/9
[]
+24.5 +18.9 71 +29 +30 душно 1003.4 938.4
03 19.07 ЮВ 2 30 км 8/8
[]
+30.4 +20.0 54 +37 +40 очень
душно
1002.5 949.2
06 19.07 В 5 30 км 9/9
[]
+31.2 +20.8 54 +38 +39 очень
душно
1001.3 936.6 +19.8
09 19.07 В 5 30 км 8/8
[]
+30.1 +19.5 53 +36 +36 очень
душно
1000.7 947.5
12 19.07 ЮВ 6 12 км 8/8
[]
+28.2 +21.2 66 +36 +36 очень
душно
1000.8 936.0
15 19.07 З 2 15 км н/о +25.8 +18.7 65 +31 +31 очень
душно
999.7 945.8
18 19.07 СВ 2 7000 м н/о +23.1 +21.0 88 +31 +31 очень
душно
999.0 934.5 +32.0
21 19.07 СВ 2 3500 м в посл. час дождь н/о +22.2 +21.7 97 +29 +29 очень
душно
999.2 944.7
00 20.07 В 1 3200 м в посл. час дождь 9/9 1000 м
[]
+23.4 +22.4 94 +32 +33 очень
душно
999.5 934.7 0.3
03 20.07 Ю 5 15 км 8/8 1000 м
[]
+29.1 +21.3 63 +37 +39 очень
душно
998.2 944.9
06 20.07 Ю 4 30 км 8/8 1000 м
[]
+32.1 +19.7 48 +38 +40 очень
душно
996.6 932.4 +22.1
09 20.07 Ю 2
{17}
30 км в посл. час дождь 9/9 1000 м
[]
+25.2 +22.1 83 +33 +33 очень
душно
997.3 943.4
12 20.07 штиль 0
{17}
26 км {дождь} 6/6 1000 м
[]
+24.5 +22.4 88 +32 +32 очень
душно
998.6 933.5 6
15 20.07 З 1 26 км н/о +23.2 +21.5 90 +31 +31 очень
душно
998.9 944.6
18 20.07 З 2 30 км н/о +23.5 +17.9 71 +28 +28 душно 999.3 934.9 +33.5
21 20.07 СЗ 2 30 км н/о +22.8 +16.4 67 +27 +27 душно 1001.1 946.6
00 21.07 З 1 30 км 3/3
[]
+25.1 +20.1 74 +31 +37 очень
душно
1001.8 936.7
03 21.07 З 3 30 км 1/1 1000 м
[]
+30.8 +16.0 41 +34 +47 очень
душно
1000.6 947.5
06 21.07 Ю 3 30 км 3/3 1000 м
[]
+33.1 +15.1 34 +35 +44 душно 1000.1 935.8 +22.2
09 21.07 ЮЗ 3 30 км ясно +33.4 +18.4 41 +38 +41 очень
душно
999.2 946.6
12 21.07 С 1 30 км ясно +28.4 +19.3 58 +34 +34 очень
душно
1000.4 935.8
15 21.07 С 2 30 км н/о +25.6 +16.5 57 +29 +29 душно 1001.3 947.3
18 21.07 В 1 30 км н/о +23.4 +16.2 64 +28 +28 душно 1000.9 936.5 +33.9
21 21.07 З 2 30 км н/о +21.3 +14.5 65 +24 +24 комфорт 1001.3 946.5
00 22.07 З 1 30 км 5/5
[]
+24.8 +17.5 64 +29 +33 душно 1001.9 937.1
03 22.07 Ю 2 30 км 5/5
[]
+29.7 +18.5 51 +35 +43 очень
душно
1001.2 947.9
06 22.07 ЮВ 5 30 км 6/6
[]
+31.3 +19.3 49 +37 +40 очень
душно
999.6 935.1 +20.2
09 22.07 В 3 30 км 9/9 1000 м
[]
+29.3 +21.5 63 +37 +38 очень
душно
999.1 945.8
12 22.07 З 12
{18}
30 км 9/9 1000 м
[]
+27.4 +15.7 49 +30 +30 жарко 1000.0 935.2
15 22.07 ЮЗ 6
{18}
30 км н/о +26.0 +14.1 48 +28 +28 жарко 1000.2 946.3
18 22.07 З 2
{18}
30 км слаб. дождь ?/? +23.1 +16.9 68 +28 +28 душно 1000.0 935.5 +32.0
21 22.07 С 6 19 км слаб. дождь н/о +19.0 +17.8 93 +20 +20 999.9 944.8
00 23.07 З 1 30 км в посл. час дождь 10/10
[]
+19.7 +18.2 91 +23 +23 комфорт 999.8 934.5 2
03 23.07 ЮВ 1 30 км {дождь} 9/9 1000 м
[]
+21.0 +18.8 87 +27 +29 душно 998.9 944.2
06 23.07 В 1 26 км {дождь} 9/9 1000 м
[]
+23.5 +19.9 80 +29 +31 душно 998.2 933.0 +19.0 0.6

 

Местоположение метеостанции Байрин-Цзоци (Внутренняя Монголия, Китай): широта 43.98 долгота 119.40 высота над уровнем моря 485 м.

В архиве по умолчанию представлена погода в Байрин-Цзоци за последнюю неделю. Архивные данные за месяц целиком и за предыдущие месяцы, начиная с января 2011 года, Вы можете получить, выбрав интересующий диапазон дат из раскрывающегося списка и нажав кнопку "Ввод!".


*Определитесь, кто Вы:
робот инопланетянин человек

Внимание! Время в таблицах - всемирное. Для получения местного времени необходимо прибавить поправку, которая равна 8 ч.

Смотрите также архив погоды в соседних городах и на ближайших метеорологических станциях:

Погода в Линьси (Внутренняя Монголия, Китай) (116 км)
Погода в Джаруд-Ци (Внутренняя Монголия, Китай) (136 км)
Погода в Си-Уджимчин-Ци (Внутренняя Монголия, Китай) (158 км)
Погода в Чифэне (Внутренняя Монголия, Китай) (194 км)
Погода в Дабейва (Внутренняя Монголия, Китай) (212 км)
Погода в Тунляо (Внутренняя Монголия, Китай) (233 км)
Погода в Дун-Уджимчин-Ци (Внутренняя Монголия, Китай) (258 км)
Погода в Шилин-Хото (Внутренняя Монголия, Китай) (263 км)
Погода в Вэйчане (Хэбэй, Китай) (265 км)
Погода в Чаояне (Ляонин, Китай) (284 км)

Пояснения к столбцам:

Ветер - указаны скорость ветра в м/с - средняя за 10 мин, порывы в срок и между сроками (в фигурных скобках) и направление, откуда дует ветер: С - северный, СВ - северо-восточный, В - восточный, ЮВ - юго-восточный, Ю - южный, ЮЗ - юго-западный, З - западный, СЗ - северо-западный.
Видимость - горизонтальная дальность видимости в метрах или километрах. При видимости от 1 до 10 км при отсутствии осадков обычно наблюдается дымка, при ухудшении видимости до 1 км и менее - туман. В сухую погоду видимость может ухудшаться дымом, пылью или мглою.
Явления - указаны атмосферные явления, наблюдавшиеся в срок или в последний час перед сроком; фигурными скобками обозначены явления, наблюдавшиеся между сроками (за 1-3 часа до срока); квадратными скобками обозначены град или гололедные отложения с указанием их диаметра в мм.
Облачность - указаны через наклонную черту общая и нижняя облачность в баллах и высота нижней границы облаков в метрах; квадратными скобками обозначены формы облаков: Ci - перистые, Cs - перисто-слоистые, Cc - перисто-кучевые, Ac - высококучевые, As - высокослоистые, Sc - слоисто-кучевые, Ns - слоисто-дождевые, Cu - кучевые, Cb - кучево-дождевые. Подробнее классификацию облаков см. в Атласе облаков (PDF).
T - Температура воздуха - температура, измеренная на высоте 2 м над землей.
Td - Температура точки росы - температура, при понижении до которой содержащийся в воздухе водяной пар достигнет насыщения.
f - Относительная влажность воздуха - влажноcть воздуха, измеренная на высоте 2 м над землей.
Te - Эффективная температура - температура, которую ощущает одетый по сезону человек в тени. Характеристика душности погоды. При расчете учитывается влияние влажности воздуха и скорости ветра на теплоощущения человека.
Tes - Эффективная температура на солнце - температура, которую ощущает человек, с поправкой на солнечный нагрев. Характеристика знойности погоды. Зависит от высоты солнца над горизонтом, облачности и скорости ветра. Ночью, в пасмурную погоду, а также при ветре 12 м/с и более поправка равна нулю.
P - Атмосферное давление - приведенное к уровню моря атмосферное давление.
Po - Атмосферное давление - измеренное на уровне метеостанции атмосферное давление.
Tmin - Минимальная температура - минимум температуры воздуха на высоте 2 м над землей.
Tmax - Максимальная температура - максимум температуры воздуха на высоте 2 м над землей.
R - Количество осадков - Количество выпавших осадков за период времени, мм. При наведении курсора мыши на число - период времени, за который выпало указанное количество осадков.
R24 - Количество осадков - Количество выпавших осадков за 24 часа, мм.
S - Снежный покров - Высота снежного покрова, см. При наведении курсора мыши на число - состояние снежного покрова и степень покрытия местности в баллах.